Location: Newark
(39.6172°N, 96.8533°W)
Time: 16:57:04
(UTC+00:00)

Explorer 7 - Visible Passes

Search period start: 26 February 2020 00:00
Search period end: 07 March 2020 00:00
Orbit: 485 x 679 km, 50.3° (Epoch: 25 February)

Date Brightness Start Highest point End Pass type
(mag) Time Alt. Az. Time Alt. Az. Time Alt. Az.
26 Feb 9.9 00:55:42 10° WSW 00:57:02 11° SW 00:58:19 10° SSW visible
04 Mar 10.1 12:08:01 10° SSE 12:10:17 13° SE 12:12:33 10° E visible
05 Mar 9.7 12:11:13 10° S 12:14:54 22° SE 12:18:37 10° E visible
06 Mar 8.9 12:15:13 10° SSW 12:19:37 34° SE 12:24:02 10° ENE visible
